Waarnemingen

Advertentie
Mijn weer
Charleroi/Gosselies, België (6449): temperatuur & dauwpunt: 06.12.2018 15:00:00 - 12.12.2018 15:00:00 (CET)Charleroi/Gosselies, België (6449): windsnelheid & windstoten: 06.12.2018 15:00:00 - 12.12.2018 15:00:00 (CET)Charleroi/Gosselies, België (6449): windrichting: 06.12.2018 15:00:00 - 12.12.2018 15:00:00 (CET)Charleroi/Gosselies, België (6449): luchtdruk: 06.12.2018 15:00:00 - 12.12.2018 15:00:00 (CET)Charleroi/Gosselies, België (6449): zicht: 06.12.2018 15:00:00 - 12.12.2018 15:00:00 (CET)
Datum & Tijd tt [°C] td [°C] ff [km/u] ff [kn] fx [km/u] fx [kn] dd ppp [hPa] vv [km]
12.12.2018 15:00:00 3,9 0,8 13 7 18 10 O 1024,3 10
12.12.2018 14:00:00 4,0 1,3 11 6 18 10 O 1024,7 10
12.12.2018 13:00:00 4,2 1,5 9 5 - - ONO 1025,2 10
12.12.2018 12:00:00 4,0 1,0 8 4 11 6 O 1025,7 10
12.12.2018 11:00:00 2,9 0,1 5 3 11 6 O 1026,3 10
12.12.2018 10:00:00 1,1 -1,3 5 3 - - ONO 1026,3 10
12.12.2018 09:00:00 0,6 -1,7 5 3 7 4 - 1026,0 10
12.12.2018 08:00:00 1,5 -2,2 4 2 7 4 - 1025,7 10
12.12.2018 07:00:00 1,7 -3,0 4 2 - - - 1025,6 10
12.12.2018 06:00:00 1,5 -0,7 5 3 11 6 O 1025,6 10
12.12.2018 05:00:00 2,0 -1,7 5 3 11 6 WNW 1025,6 10
12.12.2018 04:00:00 1,0 -0,4 4 2 - - - 1026,0 10
12.12.2018 03:00:00 0,9 -0,4 5 3 7 4 ZZW 1025,7 10
12.12.2018 02:00:00 1,2 -0,8 5 3 11 6 ZW 1025,5 10
12.12.2018 01:00:00 1,8 -1,4 5 3 - - W 1026,0 10
12.12.2018 00:00:00 1,9 -0,2 5 3 14 8 ZW 1026,0 10
11.12.2018 23:00:00 1,8 0,1 8 4 14 8 ZZW 1026,1 10
11.12.2018 22:00:00 2,7 0,3 5 3 - - W 1026,0 10
11.12.2018 21:00:00 2,8 0,6 5 3 7 4 WZW 1026,1 10
11.12.2018 20:00:00 3,2 1,8 5 3 7 4 W 1026,0 10
11.12.2018 19:00:00 4,2 1,8 5 3 - - ZW 1025,8 10
11.12.2018 18:00:00 4,2 2,3 5 3 7 4 W 1025,6 10
11.12.2018 17:00:00 4,5 2,0 5 3 11 6 W 1025,6 10
11.12.2018 16:00:00 4,9 1,8 5 3 - - W 1025,5 10
11.12.2018 15:00:00 5,2 2,4 9 5 14 8 WZW 1025,6 10
11.12.2018 14:00:00 5,5 1,7 8 4 14 8 W 1025,8 10
11.12.2018 13:00:00 5,2 2,1 9 5 - - WZW 1026,4 10
11.12.2018 12:00:00 4,7 2,2 9 5 11 6 WZW 1026,7 10
11.12.2018 11:00:00 3,8 1,9 5 3 14 8 W 1026,9 10
11.12.2018 10:00:00 2,7 1,8 8 4 - - W 1026,8 9
11.12.2018 09:00:00 2,4 1,7 8 4 14 8 W 1026,7 8
11.12.2018 08:00:00 2,4 1,5 9 5 14 8 ZW 1026,4 8
11.12.2018 07:00:00 2,3 1,4 8 4 - - ZW 1026,6 10
11.12.2018 06:00:00 2,1 1,0 8 4 11 6 WZW 1026,7 10
11.12.2018 05:00:00 1,8 1,3 8 4 14 8 WZW 1026,7 2,5
11.12.2018 04:00:00 1,6 1,4 8 4 - - WZW 1026,9 0,2
11.12.2018 03:00:00 1,7 1,3 8 4 14 8 WZW 1027,0 10
11.12.2018 02:00:00 2,2 1,5 8 4 14 8 WZW 1026,9 10
11.12.2018 01:00:00 2,9 2,3 8 4 - - W 1027,3 10
11.12.2018 00:00:00 3,1 2,3 8 4 14 8 W 1027,2 10
10.12.2018 23:00:00 3,2 2,2 8 4 11 6 WZW 1026,9 10
10.12.2018 22:00:00 3,7 2,5 5 3 - - WNW 1027,0 10
10.12.2018 21:00:00 3,6 2,6 8 4 14 8 W 1027,0 10
10.12.2018 20:00:00 4,0 1,7 4 2 14 8 - 1026,8 10
10.12.2018 19:00:00 4,4 2,0 9 5 - - W 1026,5 10
10.12.2018 18:00:00 5,1 2,9 11 6 25 14 WNW 1026,2 10
10.12.2018 17:00:00 5,7 3,7 11 6 25 14 WNW 1026,0 10
10.12.2018 16:00:00 5,9 4,0 11 6 - - WNW 1025,5 10
10.12.2018 15:00:00 6,3 4,4 13 7 43 23 WNW 1025,2 8
10.12.2018 14:00:00 6,4 4,1 13 7 32 18 W 1025,2 10
10.12.2018 13:00:00 6,4 4,3 16 9 - - W 1025,3 10
10.12.2018 12:00:00 6,0 4,6 16 9 32 18 W 1025,5 10
10.12.2018 11:00:00 5,3 4,2 15 8 25 14 W 1025,3 7
10.12.2018 10:00:00 4,6 3,9 15 8 - - W 1024,9 7
10.12.2018 09:00:00 4,1 3,4 15 8 22 12 WZW 1024,5 10
10.12.2018 08:00:00 4,2 3,2 11 6 22 12 W 1024,0 10
10.12.2018 07:00:00 3,9 2,5 15 8 - - WZW 1023,6 10
10.12.2018 06:00:00 3,6 2,4 15 8 22 12 WZW 1023,2 10
10.12.2018 05:00:00 3,7 2,3 15 8 22 12 WZW 1022,8 10
10.12.2018 04:00:00 3,6 2,4 15 8 - - WZW 1022,4 10
10.12.2018 03:00:00 3,9 3,0 11 6 22 12 WZW 1021,9 10
10.12.2018 02:00:00 4,4 3,6 11 6 22 12 W 1021,3 10
10.12.2018 01:00:00 4,3 3,2 13 7 - - WZW 1020,6 10
10.12.2018 00:00:00 4,1 2,4 13 7 25 14 WZW 1019,8 10
09.12.2018 23:00:00 4,3 2,5 11 6 22 12 W 1019,0 10
09.12.2018 22:00:00 5,0 3,2 15 8 - - WZW 1018,4 10
09.12.2018 21:00:00 5,1 2,8 11 6 25 14 W 1017,2 10
09.12.2018 20:00:00 6,2 3,3 15 8 32 18 W 1016,0 10
09.12.2018 19:00:00 6,5 4,0 15 8 - - W 1014,7 10
09.12.2018 18:00:00 6,7 4,3 16 9 29 16 W 1012,8 10
09.12.2018 17:00:00 7,4 5,2 15 8 32 18 WNW 1011,2 10
09.12.2018 16:00:00 7,5 6,0 13 7 - - WNW 1009,1 10
09.12.2018 15:00:00 7,1 6,0 18 10 43 23 WNW 1007,3 3,0
09.12.2018 14:00:00 8,0 6,4 16 9 36 19 W 1005,4 10
09.12.2018 13:00:00 8,3 6,6 21 11 - - W 1004,5 10
09.12.2018 12:00:00 6,7 4,9 22 12 47 25 W 1003,8 5
09.12.2018 11:00:00 8,0 6,3 28 15 47 25 WZW 1003,1 5
09.12.2018 10:00:00 7,8 6,2 25 14 - - WZW 1002,8 7
09.12.2018 09:00:00 7,6 6,2 29 16 43 23 WZW 1002,6 5
09.12.2018 08:00:00 7,6 5,8 26 14 40 21 WZW 1002,1 7
09.12.2018 07:00:00 8,3 4,9 26 14 - - WZW 1001,7 10
09.12.2018 06:00:00 8,3 4,4 26 14 58 31 W 1001,4 10
09.12.2018 05:00:00 8,1 5,5 28 15 50 27 WZW 1001,0 10
09.12.2018 04:00:00 8,4 5,3 29 16 - - WZW 1000,5 10
09.12.2018 03:00:00 8,4 6,2 29 16 50 27 W 1000,3 8
09.12.2018 02:00:00 8,8 6,1 29 16 61 33 WZW 1000,1 10
09.12.2018 01:00:00 9,3 6,6 37 20 - - WZW 1000,0 10
09.12.2018 00:00:00 8,9 6,1 35 19 58 31 WZW 999,9 10
08.12.2018 23:00:00 9,2 6,5 39 21 68 37 WZW 999,8 10
08.12.2018 22:00:00 10,0 7,8 42 23 - - WZW 999,6 10
08.12.2018 21:00:00 10,2 8,3 44 24 72 39 ZW 1000,1 10
08.12.2018 20:00:00 9,3 8,4 42 23 65 35 ZW 1000,8 7
08.12.2018 19:00:00 8,7 7,8 39 21 - - ZZW 1002,4 6
08.12.2018 18:00:00 8,2 7,5 37 20 54 29 ZZW 1004,4 6
08.12.2018 17:00:00 8,1 7,3 37 20 50 27 ZW 1006,1 3,0
08.12.2018 16:00:00 8,3 7,1 37 20 - - ZW 1006,9 4,0
08.12.2018 15:00:00 9,1 6,6 31 17 58 31 ZW 1007,3 10
08.12.2018 14:00:00 9,3 6,5 28 15 54 29 WZW 1007,7 10
08.12.2018 13:00:00 9,6 5,6 35 19 - - W 1007,6 10
08.12.2018 12:00:00 8,7 5,9 42 23 61 33 WZW 1007,6 10
08.12.2018 11:00:00 8,4 5,7 41 22 58 31 WZW 1007,7 10
08.12.2018 10:00:00 7,3 5,4 35 19 - - WZW 1007,6 10
08.12.2018 09:00:00 6,8 5,3 34 18 54 29 ZW 1007,7 10
08.12.2018 08:00:00 6,5 5,0 34 18 54 29 ZW 1007,9 10
08.12.2018 07:00:00 6,2 4,8 35 19 - - WZW 1007,8 8
08.12.2018 06:00:00 6,2 4,4 35 19 61 33 ZW 1008,2 10
08.12.2018 05:00:00 5,8 4,2 37 20 61 33 ZW 1008,5 10
08.12.2018 04:00:00 5,9 4,3 34 18 - - ZW 1008,8 10
08.12.2018 03:00:00 5,8 4,0 29 16 43 23 ZW 1009,5 10
08.12.2018 02:00:00 5,5 3,9 29 16 47 25 ZW 1009,6 10
08.12.2018 01:00:00 5,9 3,7 31 17 - - ZW 1009,5 10
08.12.2018 00:00:00 5,9 4,0 28 15 50 27 ZW 1009,3 10
07.12.2018 23:00:00 6,2 3,4 28 15 47 25 ZW 1008,8 10
07.12.2018 22:00:00 6,6 4,2 28 15 - - WZW 1007,9 10
07.12.2018 21:00:00 6,6 4,1 26 14 43 23 WZW 1007,2 10
07.12.2018 20:00:00 6,7 4,0 22 12 32 18 WZW 1006,1 10
07.12.2018 19:00:00 6,3 4,7 16 9 - - W 1004,8 10
07.12.2018 18:00:00 7,7 6,3 26 14 47 25 WZW 1003,0 9
07.12.2018 17:00:00 8,1 7,4 31 17 61 33 WZW 1002,2 5
07.12.2018 16:00:00 9,6 8,5 29 16 - - ZZW 1000,8 5
07.12.2018 15:00:00 9,7 8,5 29 16 58 31 ZZW 1002,0 6
07.12.2018 14:00:00 10,3 8,2 35 19 54 29 ZZW 1003,3 10
07.12.2018 13:00:00 10,2 9,2 31 17 - - ZZW 1005,4 6
07.12.2018 12:00:00 10,4 9,6 34 18 50 27 Z 1007,0 9
07.12.2018 11:00:00 10,2 9,5 24 13 47 25 ZZW 1009,3 3,5
07.12.2018 10:00:00 10,0 9,4 24 13 - - ZZW 1010,1 6
07.12.2018 09:00:00 9,9 9,6 24 13 43 23 ZZW 1011,2 2,5
07.12.2018 08:00:00 9,8 9,4 28 15 43 23 ZZW 1011,8 2,5
07.12.2018 07:00:00 9,7 9,3 28 15 - - ZZW 1012,7 2,2
07.12.2018 06:00:00 9,8 9,4 26 14 40 21 ZZW 1013,2 3,5
07.12.2018 05:00:00 9,9 9,6 22 12 36 19 ZZW 1014,3 3,0
07.12.2018 04:00:00 10,0 9,6 28 15 - - ZZW 1015,1 3,5
07.12.2018 03:00:00 10,1 9,8 26 14 40 21 ZZW 1015,9 4,0
07.12.2018 02:00:00 10,2 9,7 25 14 43 23 ZZW 1016,5 4,5
07.12.2018 01:00:00 10,2 9,6 28 15 - - ZW 1017,3 4,0
07.12.2018 00:00:00 10,6 9,7 29 16 43 23 ZW 1017,8 3,5
06.12.2018 23:00:00 11,3 9,7 28 15 40 21 ZW 1017,9 10
06.12.2018 22:00:00 11,4 9,7 28 15 - - ZW 1018,2 10
06.12.2018 21:00:00 11,5 9,8 31 17 47 25 ZW 1018,3 10
06.12.2018 20:00:00 11,3 10,4 26 14 40 21 ZW 1018,2 10
06.12.2018 19:00:00 11,3 10,4 24 13 - - ZW 1018,3 6
06.12.2018 18:00:00 11,3 10,3 22 12 40 21 ZW 1018,4 10
06.12.2018 17:00:00 11,0 10,4 21 11 40 21 ZW 1018,4 4,0
06.12.2018 16:00:00 11,5 10,1 24 13 - - ZW 1018,2 10
06.12.2018 15:00:00 11,3 10,1 22 12 36 19 ZW 1018,2 9

tt = temperatuur
td = dauwpunt
ff = windsnelheid
fx = windstoten
dd = windrichting
ppp = luchtdruk
vv = zicht

Weerstations in de omgeving